Weather History for Laramie, WY

Change the Weather History Date:

Friday, March 16, 2012

  Actual Average Record
Temperature  
Mean Temperature 45 °F 31 °F  
Max Temperature 62 °F 43 °F 62 °F (1966)
Min Temperature 28 °F 19 °F -6 °F (2002)
Degree Days  
Heating Degree Days 20 34  
Month to date heating degree days 488 574  
Since 1 July heating degree days 6653 6750  
Cooling Degree Days 0 0  
Month to date cooling degree days 0 0  
Year to date cooling degree days 0 0  
Moisture  
Dew Point 20 °F    
Average Humidity 43    
Maximum Humidity 69    
Minimum Humidity 17    
Precipitation  
Precipitation 0.00 in 0.02 in 0.26 in (1966)
Month to date precipitation T 0.27  
Year to date precipitation 1.11 0.88  
Sea Level Pressure  
Sea Level Pressure 29.77 in    
Wind  
Wind Speed 13 mph (SSW)    
Max Wind Speed 30 mph    
Max Gust Speed 39 mph    
Visibility 10 miles    
Events      
T = Trace of Precipitation, MM = Missing Value Source: NWS Daily Summary

Daily Weather History Graph

Daily Weather History Graph

Search for Another Location

Airport:

Trip Planner

Search our weather history database for the weather conditions in past years. The results will help you decide how hot, cold, wet, or windy it might be!

Date:

Astronomy

Mar. 16, 2012 Rise Set
Actual Time 7:11 AM MDT 7:11 PM MDT
Civil Twilight 6:44 AM MDT 7:38 PM MDT
Nautical Twilight 6:12 AM MDT 8:10 PM MDT
Astronomical Twilight 5:39 AM MDT 8:43 PM MDT
Moon 3:35 AM MDT (3/16) 1:30 PM MDT (3/16)
Length of Visible Light 12h 54m
Length of Day
11h 59m
Waning Crescent, 32% of the Moon is Illuminated
Mar 16
Waning Crescent
Mar 22
New
Mar 30
First Quarter
Apr 6
Full
Apr 13
Last Quarter

Hourly Weather History & Observations

Time (MDT) Temp. Windchill Dew Point Humidity Pressure Visibility Wind Dir Wind Speed Gust Speed Precip Events Conditions
12:53 AM 33.1 °F 26.1 °F 21.9 °F 64% 29.91 in 10.0 mi South 8.1 mph - N/A   Clear
1:53 AM 33.1 °F 27.7 °F 21.0 °F 61% 29.89 in 10.0 mi SSW 5.8 mph - N/A   Clear
2:53 AM 30.9 °F 24.3 °F 21.0 °F 67% 29.87 in 10.0 mi SSE 6.9 mph - N/A   Clear
3:53 AM 33.1 °F 27.7 °F 21.0 °F 61% 29.85 in 10.0 mi South 5.8 mph - N/A   Clear
4:53 AM 34.0 °F 28.8 °F 21.0 °F 59% 29.82 in 10.0 mi SSE 5.8 mph - N/A   Clear
5:53 AM 33.1 °F 26.1 °F 21.0 °F 61% 29.83 in 10.0 mi SSE 8.1 mph - N/A   Clear
6:53 AM 37.9 °F 30.0 °F 21.0 °F 51% 29.82 in 10.0 mi SSW 12.7 mph - N/A   Clear
7:53 AM 37.9 °F 29.2 °F 21.9 °F 53% 29.86 in 10.0 mi SSW 15.0 mph - N/A   Clear
8:53 AM 42.1 °F 35.2 °F 26.1 °F 53% 29.85 in 10.0 mi SSE 12.7 mph - N/A   Clear
9:53 AM 53.1 °F - 19.9 °F 27% 29.78 in 10.0 mi SW 19.6 mph 24.2 mph N/A   Clear
10:01 AM 55.4 °F - 19.4 °F 25% 29.94 in 10.0 mi SW 25.3 mph 33.4 mph N/A   Clear
10:53 AM 54.0 °F - 19.0 °F 25% 29.78 in 10.0 mi SSW 23.0 mph 33.4 mph N/A   Clear
11:53 AM 54.0 °F - 19.0 °F 25% 29.81 in 10.0 mi SW 20.7 mph 31.1 mph N/A   Clear
12:53 PM 57.9 °F - 18.0 °F 21% 29.73 in 10.0 mi SW 24.2 mph 32.2 mph N/A   Clear
1:53 PM 62.1 °F - 18.0 °F 18% 29.68 in 10.0 mi SW 21.9 mph 32.2 mph N/A   Clear
2:53 PM 59.0 °F - 17.1 °F 20% 29.69 in 10.0 mi SW 23.0 mph 34.5 mph N/A   Clear
3:53 PM 62.1 °F - 17.1 °F 18% 29.66 in 10.0 mi WSW 21.9 mph 29.9 mph N/A   Clear
4:53 PM 60.1 °F - 16.0 °F 18% 29.66 in 10.0 mi WSW 20.7 mph 27.6 mph N/A   Clear
5:53 PM 57.9 °F - 16.0 °F 19% 29.68 in 10.0 mi WSW 17.3 mph - N/A   Clear
6:53 PM 51.1 °F - 18.0 °F 27% 29.70 in 10.0 mi SW 10.4 mph - N/A   Clear
7:53 PM 46.0 °F 41.4 °F 19.0 °F 34% 29.73 in 10.0 mi SSW 9.2 mph - N/A   Clear
8:53 PM 41.0 °F 37.1 °F 19.9 °F 43% 29.75 in - SSW 5.8 mph - N/A   Clear
9:53 PM 42.1 °F 35.2 °F 19.0 °F 40% 29.69 in 10.0 mi SSW 12.7 mph - N/A   Clear
10:53 PM 37.9 °F 34.4 °F 19.0 °F 47% 29.70 in 10.0 mi SSE 4.6 mph - N/A   Clear
11:53 PM 37.0 °F 31.6 °F 19.9 °F 50% 29.69 in 10.0 mi SSE 6.9 mph - N/A   Clear